Weather in Camiguin

Philippines     9°10′22″N   124°43′10″E
temp.,
°C
wind,
m/s
gust,
m/s
humid.,
%
clouds,
%
prec.,
mm/h
press.,
hPa
HPBL,
m
16 may, sun
sun1623:00+27e568487 0.8 1009395
02:00+26e568364 0.9 1008339
05:00+26e568342 0.0 1008374
08:00+28e567591 0.0 1010523
11:00+29ene5670100 0.0 1009595
14:00+29nne567275 0.0 1007556
17:00+28ne788397 1.1 1007403
20:00+27ne678686 2.1 1009317
17 may, mon
mon1723:00+27ene5685100 0.3 1009405
02:00+26e568697 0.3 1008440
05:00+26e458596 0.0 1008416
08:00+27e4579100 0.0 1010527
11:00+28ene457388 0.0 1009636
14:00+29ne557387 0.0 1007639
17:00+28ne678291 0.3 1007420
20:00+27ne678625 0.8 1009368
18 may, tue
tue1823:00+27ene448669 0.3 1009366
02:00+26ene448661 1.6 1007385
05:00+26ene3487100 0.6 1007370
08:00+27e3484100 0.8 1009464
11:00+29ene337399 0.1 1008606
14:00+29nne337199 0.1 1006629
17:00+28e4578100 1.0 1006426
20:00+27e3484100 1.1 1008284
19 may, wed
wed1923:00+26e3488100 3.6 1008185
02:00+26e3386100 9.8 1007155
05:00+26ese338486 1.3 1008297
08:00+27ese228152 1.4 1009414
11:00+28ene227771 0.3 1008582
14:00+29ne3375100 0.6 1006716
17:00+27ne458480 1.1 1007404
20:00+26ne4586100 2.4 1008306
20 may, thu
thu2023:00+26ne338598 3.3 1009179
02:00+26wsw128498 5.9 100886
05:00+26sw3383100 1.4 1009242
08:00+27sw3380100 1.9 1009288
11:00+29wsw126822 0.1 1008697
14:00+28wsw227229 0.3 1007647
17:00+27sw2281100 1.2 1007164
20:00+26sw3384100 2.8 1009128